TJS-3 AKM (43917 NORAD) Tracking and Keplerian Element Data

This shows tracking and keplerian element data for the satellite.

Feedback or suggestion? Click here.




ElementValue
Catalog43917
NameTJS-3 AKM
Epoch Orbit20
Epoch Day16.70065709
Epoch Year2019
RAAN244.5252
Inclination0.0743
Eccentricity0.0001403
Argument of Perigee21.0999
Mean Anonmoly161.496
Mean Motion1.00270998
Decay Rate6.7E-07
L11 43917U 18110C 19016.70065709 .00000067 00000-0 00000+0 0 9998
L22 43917 0.0743 244.5252 0001403 21.0999 161.4960 1.00270998 207

Live tracking and technical data element details for TJS-3 AKM (NORAD 43917). TJS-3 AKM can be tracked NOW for your location showing map with azimuth and elevation plus other details from your city location.

Track the satellite on the map from your city or location and see movement details for azimuth, elevation, latitude, longitude, range, height, and movement on the map or in text.







IsCatalogInMostPopularTable: catalog: 43917, numindb: 10
Update: records affected: 1



GetName: 43917 TJS-3 AKM

Hit Count: updated at: Thu, 17 Jan 2019 14:56:33 GMT